Time,TemperatureF,DewpointF,PressureIn,WindDirection,WindDirectionDegrees,WindSpeedMPH,WindSpeedGustMPH,Humidity,HourlyPrecipIn,Conditions,Clouds,dailyrainin,SoftwareType,DateUTC
2013-05-19 00:00:00,66.0,45.1,29.93,WNW,292,7.0,10.0,47,0.00,,,0.00,Weather View 32 v70,2013-05-19 07:00:00,
2013-05-19 00:30:00,63.0,44.5,29.93,WNW,292,0.0,11.0,51,0.00,,,0.00,Weather View 32 v70,2013-05-19 07:30:00,
2013-05-19 01:00:00,61.0,46.1,29.91,WNW,292,1.0,11.0,58,0.00,,,0.00,Weather View 32 v70,2013-05-19 08:00:00,
2013-05-19 01:30:00,60.0,48.2,29.91,West,270,0.0,4.0,65,0.00,,,0.00,Weather View 32 v70,2013-05-19 08:30:00,
2013-05-19 02:00:00,57.0,50.5,29.90,WSW,247,0.0,4.0,79,0.00,,,0.00,Weather View 32 v70,2013-05-19 09:00:00,
2013-05-19 02:30:00,55.0,51.8,29.89,WSW,247,1.0,2.0,89,0.00,,,0.00,Weather View 32 v70,2013-05-19 09:30:00,
2013-05-19 03:00:00,55.0,51.5,29.87,WSW,247,0.0,3.0,88,0.00,,,0.00,Weather View 32 v70,2013-05-19 10:00:00,
2013-05-19 03:30:00,55.0,52.1,29.87,West,270,0.0,3.0,90,0.00,,,0.00,Weather View 32 v70,2013-05-19 10:30:00,
2013-05-19 04:00:00,55.0,51.8,29.87,West,270,0.0,6.0,89,0.00,,,0.00,Weather View 32 v70,2013-05-19 11:00:00,
2013-05-19 04:30:00,53.0,49.5,29.87,SSE,157,0.0,6.0,88,0.00,,,0.00,Weather View 32 v70,2013-05-19 11:30:00,
2013-05-19 05:00:00,51.0,45.0,29.87,SSE,157,0.0,1.0,80,0.00,,,0.00,Weather View 32 v70,2013-05-19 12:00:00,
2013-05-19 05:30:00,50.0,37.1,29.87,South,180,0.0,2.0,61,0.00,,,0.00,Weather View 32 v70,2013-05-19 12:30:00,
2013-05-19 06:00:00,51.0,34.0,29.88,SSW,202,0.0,2.0,52,0.00,,,0.00,Weather View 32 v70,2013-05-19 13:00:00,
2013-05-19 06:30:00,53.0,34.3,29.90,SSW,202,0.0,1.0,49,0.00,,,0.00,Weather View 32 v70,2013-05-19 13:30:00,
2013-05-19 07:00:00,57.0,35.8,29.93,SSW,202,0.0,0.0,45,0.00,,,0.00,Weather View 32 v70,2013-05-19 14:00:00,
2013-05-19 07:30:00,62.0,57.4,29.96,SSW,202,0.0,0.0,85,0.00,,,0.00,Weather View 32 v70,2013-05-19 14:30:00,
2013-05-19 08:00:00,66.0,58.6,29.99,NNW,337,1.0,7.0,77,0.00,,,0.00,Weather View 32 v70,2013-05-19 15:00:00,
2013-05-19 08:30:00,67.0,57.6,30.00,NNW,337,0.0,9.0,72,0.00,,,0.00,Weather View 32 v70,2013-05-19 15:30:00,
2013-05-19 09:00:00,71.0,57.7,30.02,SW,225,0.0,9.0,63,0.00,,,0.00,Weather View 32 v70,2013-05-19 16:00:00,
2013-05-19 09:30:00,71.0,54.5,30.03,SE,135,0.0,6.0,56,0.00,,,0.00,Weather View 32 v70,2013-05-19 16:30:00,
2013-05-19 10:00:00,72.0,55.4,30.03,SSW,202,4.0,9.0,56,0.00,,,0.00,Weather View 32 v70,2013-05-19 17:00:00,
2013-05-19 10:30:00,76.0,55.4,30.02,SSE,157,2.0,9.0,49,0.00,,,0.00,Weather View 32 v70,2013-05-19 17:30:00,
2013-05-19 11:00:00,76.0,53.1,30.03,SE,135,0.0,9.0,45,0.00,,,0.00,Weather View 32 v70,2013-05-19 18:00:00,
2013-05-19 11:30:00,78.0,53.0,30.03,SSE,157,0.0,9.0,42,0.00,,,0.00,Weather View 32 v70,2013-05-19 18:30:00,
2013-05-19 12:00:00,78.0,53.0,30.01,SW,225,6.0,9.0,42,0.00,,,0.00,Weather View 32 v70,2013-05-19 19:00:00,
2013-05-19 12:30:00,79.0,51.8,30.01,SSE,157,1.0,9.0,39,0.00,,,0.00,Weather View 32 v70,2013-05-19 19:30:00,
2013-05-19 13:00:00,80.0,52.7,30.00,NW,315,6.0,10.0,39,0.00,,,0.00,Weather View 32 v70,2013-05-19 20:00:00,
2013-05-19 13:30:00,81.0,51.4,29.99,SW,225,0.0,10.0,36,0.00,,,0.00,Weather View 32 v70,2013-05-19 20:30:00,
2013-05-19 14:00:00,82.0,53.1,29.99,WNW,292,4.0,10.0,37,0.00,,,0.00,Weather View 32 v70,2013-05-19 21:00:00,
2013-05-19 14:30:00,83.0,54.0,29.99,SSW,202,6.0,10.0,37,0.00,,,0.00,Weather View 32 v70,2013-05-19 21:30:00,
2013-05-19 15:00:00,84.0,50.0,29.98,NW,315,8.0,12.0,31,0.00,,,0.00,Weather View 32 v70,2013-05-19 22:00:00,
2013-05-19 15:30:00,85.0,50.9,29.97,WNW,292,7.0,13.0,31,0.00,,,0.00,Weather View 32 v70,2013-05-19 22:30:00,
2013-05-19 16:00:00,85.0,49.1,29.97,West,270,9.0,13.0,29,0.00,,,0.00,Weather View 32 v70,2013-05-19 23:00:00,
2013-05-19 16:30:00,85.0,50.0,29.95,West,270,0.0,13.0,30,0.00,,,0.00,Weather View 32 v70,2013-05-19 23:30:00,
2013-05-19 17:00:00,84.0,48.2,29.95,WNW,292,3.0,13.0,29,0.00,,,0.00,Weather View 32 v70,2013-05-20 00:00:00,
2013-05-19 17:30:00,83.0,47.4,29.93,NNW,337,5.0,13.0,29,0.00,,,0.00,Weather View 32 v70,2013-05-20 00:30:00,
2013-05-19 18:00:00,82.0,46.5,29.92,NW,315,6.0,12.0,29,0.00,,,0.00,Weather View 32 v70,2013-05-20 01:00:00,
2013-05-19 18:30:00,82.0,47.4,29.91,WNW,292,6.0,10.0,30,0.00,,,0.00,Weather View 32 v70,2013-05-20 01:30:00,
2013-05-19 19:00:00,82.0,47.4,29.90,NW,315,6.0,10.0,30,0.00,,,0.00,Weather View 32 v70,2013-05-20 02:00:00,
2013-05-19 19:30:00,79.0,48.1,29.90,WNW,292,2.0,9.0,34,0.00,,,0.00,Weather View 32 v70,2013-05-20 02:30:00,
2013-05-19 20:00:00,76.0,49.2,29.89,WSW,247,0.0,9.0,39,0.00,,,0.00,Weather View 32 v70,2013-05-20 03:00:00,
2013-05-19 20:30:00,73.0,49.1,29.88,WNW,292,3.0,7.0,43,0.00,,,0.00,Weather View 32 v70,2013-05-20 03:30:00,
2013-05-19 21:00:00,71.0,49.7,29.88,WNW,292,0.0,7.0,47,0.00,,,0.00,Weather View 32 v70,2013-05-20 04:00:00,
2013-05-19 21:30:00,69.0,49.5,29.87,WNW,292,2.0,7.0,50,0.00,,,0.00,Weather View 32 v70,2013-05-20 04:30:00,
2013-05-19 22:00:00,67.0,48.7,29.88,WNW,292,0.0,7.0,52,0.00,,,0.00,Weather View 32 v70,2013-05-20 05:00:00,
2013-05-19 22:30:00,65.0,48.4,29.87,WNW,292,0.0,5.0,55,0.00,,,0.00,Weather View 32 v70,2013-05-20 05:30:00,
2013-05-19 23:00:00,63.0,51.8,29.87,SE,135,0.0,2.0,67,0.00,,,0.00,Weather View 32 v70,2013-05-20 06:00:00,
2013-05-19 23:30:00,62.0,52.5,29.85,SE,135,0.0,2.0,71,0.00,,,0.00,Weather View 32 v70,2013-05-20 06:30:00,